Theta_e
327 323 323 322 321 321 322 324 327 328 328 330 332 332 329 331 337 334 328 328 326 323 320 318 316 315 313 312 310 310 311 311 310 309 310 309 309 309 308 308 308 308 308 309 310 310 311 311 311 312 312 312 313 314 316 319 322 325 327 327 327 328 328 328 328 328 329 330 328 326 327 328 328 328 328 328 327 327 327 325 324 324 323 323 321 320 318
327 322 323 320 318 319 318 319 322 324 325 325 326 326 326 328 330 327 324 323 321 319 317 314 312 311 310 310 309 307 308 308 307 308 308 307 307 307 307 307 307 306 307 307 308 309 310 310 310 310 310 311 311 312 313 315 319 323 327 327 327 327 327 327 328 328 328 328 327 326 327 328 328 328 327 327 326 326 325 324 323 322 322 322 320 319 318
326 323 321 318 316 317 316 316 318 320 321 321 321 321 322 324 325 322 320 320 318 315 311 309 309 308 307 308 307 307 306 306 306 306 306 305 305 305 305 306 305 305 306 306 306 307 309 309 309 309 309 309 310 310 310 311 315 320 324 326 327 326 326 327 327 326 326 326 326 326 326 327 328 327 326 325 324 324 323 322 322 321 321 321 320 319 318
324 323 321 318 318 320 318 316 315 318 320 320 318 318 319 321 323 323 322 321 318 313 309 307 307 306 306 306 306 306 305 304 304 304 304 304 304 304 304 304 304 304 305 305 304 305 306 308 308 308 308 308 308 309 309 309 311 315 319 323 324 325 326 326 325 325 325 325 325 325 325 326 326 325 324 323 323 322 322 321 321 321 321 320 320 319 318
324 322 322 321 323 326 323 317 314 316 318 318 317 316 316 317 319 320 320 317 313 310 308 307 306 306 306 305 305 305 305 304 304 303 303 303 303 303 303 303 303 304 304 304 303 303 304 305 306 306 307 307 307 307 307 308 309 311 313 317 320 323 325 325 325 325 324 324 324 325 325 325 325 324 323 322 322 322 321 321 321 321 320 320 318 318 318
323 323 324 325 326 325 320 315 314 315 316 316 315 315 314 314 314 314 313 311 308 307 307 306 306 305 305 304 304 303 304 304 303 302 302 302 302 302 302 302 302 303 303 303 303 302 303 303 304 304 305 305 305 305 306 307 308 308 309 311 314 318 320 321 323 324 323 323 323 324 324 324 324 324 323 322 322 322 321 321 321 320 319 319 318 317 317
324 324 324 326 324 319 316 314 314 314 314 314 313 312 312 312 312 311 310 308 306 306 305 305 304 304 303 303 303 302 302 302 302 302 302 302 302 302 301 301 302 302 302 302 302 302 302 302 303 303 303 303 303 304 304 305 306 307 307 308 309 312 315 316 318 321 322 322 323 323 323 323 323 322 322 322 321 321 320 320 319 318 317 316 316 315 315
323 323 324 324 320 315 314 314 313 313 314 314 314 313 311 311 311 311 309 308 306 305 305 304 304 303 302 302 302 302 302 302 302 301 301 301 301 301 301 301 301 301 301 301 301 301 301 301 302 302 302 303 302 303 303 303 304 305 306 306 307 309 311 312 313 315 317 319 321 320 320 321 321 320 320 319 317 318 318 317 316 316 315 314 314 313 313
321 320 320 319 317 315 314 313 313 313 313 313 314 314 311 310 310 310 309 308 307 306 306 305 304 304 303 302 301 301 301 301 301 301 301 301 301 300 301 300 300 300 300 300 300 300 300 300 301 301 301 302 302 302 302 302 303 304 304 305 305 306 308 309 311 312 313 314 316 316 316 317 317 317 317 316 315 315 315 314 314 313 313 313 313 313 313
318 317 318 318 318 317 314 312 313 313 313 312 313 313 312 310 310 310 309 309 308 308 308 307 306 306 306 304 302 301 300 300 301 301 300 300 300 300 300 299 299 299 299 300 300 300 300 300 300 300 301 301 301 301 301 302 302 303 303 304 304 305 306 307 308 310 312 312 312 313 313 313 314 315 315 315 314 314 315 315 314 313 312 312 311 312 312
318 318 319 318 317 315 312 310 311 312 313 313 313 315 313 310 310 310 310 310 310 309 309 308 307 308 307 304 302 301 300 300 300 300 300 300 300 300 300 299 299 299 299 299 299 300 300 300 300 300 300 300 300 300 300 301 301 302 303 303 304 304 305 305 306 308 311 312 311 311 311 311 312 313 314 314 315 315 315 315 314 313 313 313 311 310 309
319 318 317 315 314 312 310 310 311 311 312 313 315 317 315 310 310 311 310 309 309 308 307 306 306 307 305 303 302 300 300 299 300 300 300 300 300 300 299 299 299 299 298 298 299 299 299 299 299 299 300 300 300 300 300 300 301 301 302 303 304 304 304 305 305 306 308 310 310 309 310 310 310 311 312 313 314 314 314 314 313 313 313 313 311 309 308
316 315 314 313 312 310 309 310 310 309 311 314 316 316 312 310 310 311 309 307 307 306 305 304 304 304 302 301 300 300 299 299 299 299 299 300 299 299 299 299 298 298 298 298 298 298 298 298 299 299 299 299 299 299 300 300 300 301 302 303 304 304 304 304 305 305 306 307 308 308 309 310 310 311 311 312 312 313 313 312 312 311 310 310 309 307 306
316 315 313 313 312 309 308 309 309 308 312 315 313 311 310 309 309 309 307 305 304 304 303 303 303 302 301 300 300 299 299 299 299 299 299 299 299 299 299 299 299 298 298 298 298 298 298 297 298 298 299 299 299 299 299 299 300 301 302 303 303 303 304 304 304 305 305 305 305 306 307 308 308 308 309 309 310 311 311 311 310 309 308 307 306 304 303
316 315 312 312 312 309 307 309 309 308 310 311 308 308 309 308 307 307 306 304 303 302 302 301 301 300 300 300 299 299 299 299 299 299 299 299 299 298 299 299 299 298 298 298 298 298 298 298 298 298 298 299 299 300 300 300 300 300 301 302 302 302 303 303 303 303 304 304 305 305 305 306 306 306 306 306 306 306 307 307 307 306 306 305 305 304 303
313 313 311 310 310 308 306 307 308 307 307 306 306 307 308 307 306 305 304 303 302 301 300 300 300 300 300 300 299 299 299 299 298 298 299 299 299 298 298 298 298 298 298 298 298 299 299 298 298 298 299 299 299 300 300 300 300 300 301 301 301 301 302 302 302 302 303 303 304 304 304 305 305 306 306 305 305 305 305 306 306 306 305 305 305 305 303
310 310 309 308 308 307 306 305 305 305 304 304 305 305 306 306 305 304 303 303 302 301 300 300 300 300 299 299 299 299 299 299 299 299 299 299 299 299 299 299 298 298 298 299 299 299 300 299 299 299 299 299 299 300 300 300 300 300 300 301 301 301 300 300 301 302 303 303 303 303 303 304 304 304 304 305 305 305 305 305 305 305 305 305 306 305 303
309 308 308 306 306 305 305 304 304 303 303 303 303 304 304 305 304 303 303 302 302 301 300 300 300 300 299 299 299 299 299 299 299 299 299 299 299 299 299 299 299 299 299 299 299 299 300 300 300 300 300 300 300 300 300 300 299 299 300 300 301 301 301 300 300 300 301 302 303 303 303 302 302 303 304 304 304 304 304 304 304 304 304 304 304 304 303
309 309 308 306 305 305 304 303 303 303 302 302 302 303 303 303 303 302 302 302 301 301 301 300 300 300 300 299 299 299 299 299 299 299 300 299 299 299 299 299 299 299 299 299 300 300 300 300 300 300 300 300 300 300 300 300 300 299 299 299 300 301 301 301 301 300 298 299 300 301 300 300 299 299 301 303 304 303 303 303 303 303 303 302 302 302 301
308 308 307 305 305 304 303 303 303 303 303 302 302 302 303 302 302 302 302 302 301 301 302 302 301 301 301 301 300 300 299 299 299 300 300 300 300 299 299 299 299 299 299 299 299 299 299 299 299 300 300 300 300 300 300 300 300 299 298 299 300 301 301 301 301 301 299 298 298 298 298 298 297 297 298 299 301 301 301 301 301 303 303 301 301 301 300
307 306 305 305 305 305 304 303 303 303 303 303 302 302 302 302 302 302 302 301 301 301 302 302 301 302 302 301 301 301 301 300 300 300 300 300 299 299 299 299 299 299 299 299 299 299 299 299 299 299 299 299 300 300 300 300 300 300 299 299 300 300 301 301 301 301 300 299 298 298 298 298 297 297 297 297 298 298 298 298 299 301 301 301 300 300 300
307 307 306 305 306 305 305 304 303 303 303 303 303 302 302 302 302 301 301 301 301 301 301 301 301 301 301 301 301 301 301 301 300 300 300 300 300 299 299 299 299 299 299 299 299 299 299 299 299 299 299 299 299 299 299 299 300 300 300 299 300 300 300 301 301 301 301 300 300 299 298 298 298 297 297 297 297 297 297 297 297 298 299 299 298 298 298
307 306 305 305 306 305 304 304 303 303 303 303 303 303 302 302 301 301 301 301 301 301 301 301 301 301 301 301 300 300 300 300 300 300 300 300 300 300 299 299 299 299 299 299 299 299 299 299 299 299 299 299 299 299 299 299 299 299 299 300 300 300 300 300 300 300 301 301 301 300 299 298 298 298 297 297 297 296 297 297 296 296 297 297 297 297 297
304 304 304 304 305 305 304 304 304 303 303 303 303 303 302 301 301 301 301 301 302 301 300 300 300 300 300 300 299 299 299 299 299 299 300 300 300 300 300 300 300 300 300 300 300 300 299 299 299 299 299 299 299 299 299 299 299 299 299 299 300 300 300 300 300 300 300 300 301 301 300 299 299 298 297 297 296 296 296 296 296 296 296 296 296 296 296
304 305 305 304 304 304 304 303 303 303 302 302 302 302 302 301 301 301 301 300 301 300 299 299 299 299 299 298 298 298 298 298 299 299 299 300 300 300 300 300 300 300 300 300 300 300 300 300 300 299 299 299 299 299 299 299 299 299 298 299 299 299 299 299 299 299 299 299 299 300 300 300 300 299 299 298 297 296 296 296 296 296 296 296 296 296 296
304 304 304 304 304 304 304 303 303 302 302 301 301 301 301 301 301 301 301 300 300 299 299 298 298 298 298 298 298 297 297 298 299 298 298 299 300 300 300 300 300 300 300 300 300 300 299 299 299 299 299 299 299 299 299 299 299 299 299 299 299 299 299 299 299 299 299 298 298 299 300 300 300 300 300 299 298 297 296 296 296 296 296 296 296 296 296
304 304 304 303 303 303 303 304 303 302 301 301 301 301 301 301 301 300 300 300 299 299 299 299 298 298 298 298 297 297 297 297 298 298 298 299 300 300 300 300 300 300 300 300 299 299 299 299 300 300 299 299 299 299 299 299 299 299 299 299 299 298 298 298 299 299 298 298 298 299 299 299 299 300 300 299 298 297 297 297 296 296 296 296 296 296 296
304 304 303 303 303 303 302 302 302 301 301 301 301 301 301 300 300 300 299 299 299 299 299 299 298 299 298 298 298 297 297 297 298 298 298 299 300 300 300 300 300 300 300 300 299 299 299 299 300 300 300 300 299 299 299 299 299 299 299 298 298 297 297 297 297 299 299 297 297 298 298 298 299 299 299 299 299 298 298 297 297 297 296 296 296 296 296
304 303 302 302 301 301 301 301 301 301 302 301 301 301 301 301 301 302 300 299 299 299 299 299 298 298 298 298 297 297 297 297 297 298 298 298 299 299 299 299 299 299 299 299 299 299 299 299 299 299 299 300 300 299 299 299 299 299 299 298 297 297 297 296 297 298 299 297 297 297 298 298 299 298 298 298 298 299 298 298 297 297 297 297 296 296 296
304 304 303 302 301 301 302 302 302 302 301 301 300 301 301 301 303 304 302 300 299 299 299 299 298 297 297 297 296 296 295 296 296 297 296 296 296 296 296 297 298 298 298 298 298 298 298 298 298 298 298 299 300 300 299 299 299 299 299 298 297 297 297 296 297 298 298 297 297 297 297 298 298 298 298 298 298 298 298 298 297 297 297 296 296 296 296
306 306 306 305 304 302 302 303 303 303 301 300 300 301 302 302 303 304 303 300 299 299 299 299 298 297 296 296 295 294 295 295 295 294 293 293 293 292 292 293 295 295 295 296 296 296 296 296 296 296 296 297 299 300 299 299 299 299 299 298 298 297 297 297 297 297 297 297 297 297 297 298 298 298 298 298 298 298 298 297 297 296 296 296 296 295 295
305 306 307 307 305 304 304 304 304 303 303 303 302 303 303 302 303 303 302 300 300 300 300 299 297 296 295 295 294 294 295 295 294 294 293 292 293 293 292 293 294 294 294 295 295 295 295 295 295 295 295 296 298 299 299 299 299 299 299 299 298 298 297 297 297 297 297 297 297 297 297 298 298 297 297 297 297 297 297 297 296 296 295 295 295 295 295
304 305 305 305 304 303 304 304 303 303 303 303 303 302 302 301 301 301 300 300 300 300 299 298 297 295 294 294 294 295 295 295 295 294 294 293 293 293 293 294 294 295 295 295 295 295 295 294 294 294 294 295 296 298 298 298 299 299 299 299 299 298 297 297 297 297 297 297 297 297 297 298 298 297 297 297 297 297 297 296 296 296 295 295 295 295 296
303 304 303 303 302 303 304 304 305 304 303 302 301 301 301 301 300 300 300 300 300 300 299 298 296 295 294 294 294 294 294 295 295 295 294 293 293 293 293 294 294 295 295 294 294 295 295 295 294 294 294 295 295 296 297 298 298 299 299 299 299 299 298 298 297 297 297 297 296 296 297 297 297 297 297 297 297 297 297 297 296 296 296 296 295 295 295
301 301 301 300 301 301 302 303 303 304 303 303 301 301 300 300 300 300 300 300 300 299 298 297 296 294 294 294 294 294 294 294 294 294 294 294 294 294 294 294 294 295 295 294 295 295 295 295 295 294 294 295 295 295 296 296 297 298 299 299 299 299 299 298 297 297 297 297 296 297 297 297 297 297 297 297 296 296 296 297 297 296 296 296 295 295 295
300 300 300 300 300 300 300 301 301 300 300 301 300 300 300 300 300 300 300 300 300 299 298 297 296 295 294 294 294 294 294 294 294 294 294 294 295 295 295 294 295 295 295 295 295 295 296 296 295 295 294 295 295 295 295 295 296 298 299 299 299 299 299 298 297 297 297 296 296 296 296 296 296 296 297 297 297 296 296 296 296 295 295 296 295 295 295
300 300 299 299 300 300 300 300 300 300 300 300 300 300 300 300 300 300 301 300 300 299 298 297 296 295 294 294 294 294 294 295 295 295 295 295 295 295 295 295 295 295 295 295 295 295 295 295 295 294 294 295 296 296 296 295 295 297 298 299 299 299 299 299 297 296 296 296 296 296 295 295 295 296 296 297 296 296 296 296 296 295 295 295 295 295 295
300 300 299 299 300 300 300 299 300 300 300 300 299 299 299 300 300 300 300 300 300 300 299 299 298 296 295 294 294 294 295 295 295 295 295 295 295 295 295 295 295 295 295 295 296 296 296 296 295 294 294 295 296 297 296 295 295 296 298 299 299 298 299 299 298 296 296 296 296 295 295 295 295 296 296 297 296 296 296 296 296 296 295 295 295 295 295
299 299 300 300 299 299 299 299 299 299 299 299 299 299 299 300 300 300 300 300 300 300 300 299 299 298 296 295 295 295 295 295 295 295 295 295 295 295 295 296 295 295 295 296 296 296 295 294 294 295 296 297 297 297 297 296 295 296 297 298 298 298 298 298 298 297 296 296 296 296 295 296 296 296 297 296 296 296 296 296 296 295 295 295 295 295 294
299 299 299 299 299 299 299 299 299 299 299 300 300 299 299 300 300 299 300 300 300 300 300 300 299 299 298 297 297 297 297 297 297 297 296 296 296 296 296 297 297 297 296 296 296 296 294 293 294 296 297 297 297 297 298 297 296 296 297 298 298 298 298 298 298 297 296 296 296 296 295 295 296 296 296 296 296 296 296 296 295 295 295 295 295 295 294
299 299 299 299 299 299 299 299 299 299 300 300 300 300 300 300 300 300 300 300 300 300 300 300 300 299 299 299 299 298 298 298 298 298 298 297 297 296 297 297 298 297 297 296 296 296 294 294 295 296 296 295 294 295 297 298 298 297 297 298 298 298 298 298 298 297 296 296 296 296 296 295 295 296 296 296 296 296 296 295 295 295 295 296 295 295 294
299 299 299 299 299 299 299 299 299 299 300 300 300 300 300 300 300 300 300 300 300 300 300 300 300 299 299 299 299 299 298 299 299 299 298 298 298 297 297 297 297 297 296 296 296 295 294 294 296 295 294 293 292 293 295 298 298 297 297 298 298 298 298 298 298 298 297 296 296 296 296 295 295 295 295 296 296 296 296 295 295 295 296 295 295 295 294
300 300 300 300 299 299 299 299 299 299 299 299 299 300 300 300 300 300 300 300 300 300 300 300 300 299 299 299 299 299 299 299 299 299 299 299 298 298 298 298 297 296 296 295 295 294 294 295 296 295 293 293 292 292 293 296 297 297 298 298 298 297 298 298 297 297 297 296 296 296 296 296 296 295 295 296 296 296 296 296 296 296 295 295 295 295 294
300 300 300 299 299 299 299 299 299 299 299 299 300 300 300 300 300 300 300 300 300 300 299 299 299 299 299 299 299 299 299 299 299 299 299 299 298 298 298 298 297 296 295 295 295 295 295 296 295 294 294 294 293 292 292 295 297 297 297 298 298 297 297 297 297 296 295 295 295 296 296 296 296 296 296 296 296 296 296 296 296 296 295 294 294 295 294
299 299 299 298 298 299 299 299 299 299 299 299 299 299 299 300 300 300 300 300 300 300 300 299 300 300 300 299 300 300 299 299 299 299 299 299 299 298 298 298 297 296 295 295 295 295 295 296 295 294 294 294 294 292 292 294 296 297 297 297 297 297 296 295 295 295 295 294 295 295 296 296 296 296 296 296 296 296 296 296 296 296 295 295 294 294 295
299 299 298 298 298 298 299 300 299 299 299 299 299 299 299 300 300 300 300 300 300 300 300 300 300 300 300 300 299 299 299 299 299 299 299 299 299 298 298 297 296 296 296 296 296 295 296 296 296 295 295 294 294 292 292 293 295 296 296 296 297 296 296 295 295 295 295 295 295 295 295 295 296 296 296 296 296 296 296 296 295 295 295 295 295 294 294
299 299 299 298 299 299 299 299 299 299 299 299 299 299 299 300 300 300 300 300 300 300 300 300 300 300 300 300 300 300 299 299 299 299 298 298 298 298 298 297 297 296 297 297 296 296 296 296 296 295 295 294 294 293 292 293 295 295 296 296 296 295 294 294 294 294 294 295 295 295 295 295 295 295 295 295 296 296 296 296 295 295 295 295 295 294 294
299 299 299 299 299 299 298 298 298 298 298 298 299 299 299 300 300 300 300 300 300 300 300 300 300 300 300 299 299 299 299 299 299 299 299 299 298 298 298 298 297 297 297 297 296 296 296 296 296 295 295 295 294 293 292 292 294 295 295 295 295 294 294 293 293 292 292 293 294 294 295 295 295 295 295 295 295 295 295 295 295 295 295 295 295 295 294
299 299 299 299 298 298 298 298 298 298 298 298 299 299 299 299 299 299 299 299 299 299 299 299 299 299 299 299 299 299 299 299 299 299 298 298 298 298 298 298 298 297 297 297 296 296 296 296 296 295 295 295 294 293 292 292 293 293 294 294 294 294 294 294 293 292 292 292 293 294 294 295 295 295 295 295 295 295 295 295 295 295 295 295 295 295 295
299 299 299 299 298 298 298 298 298 298 298 298 298 298 299 299 299 299 299 299 299 299 299 299 299 299 299 298 298 298 298 298 298 298 298 298 298 298 298 298 297 297 297 296 296 296 296 296 296 296 295 295 294 293 292 292 292 292 293 293 293 294 294 294 293 293 292 292 293 293 294 294 295 295 296 295 295 295 294 295 295 295 295 295 295 294 294
299 299 298 299 299 299 298 298 298 298 298 298 298 298 298 298 298 298 298 298 298 298 299 299 299 298 298 298 298 298 298 298 298 297 297 297 297 297 297 297 297 297 296 296 296 296 296 296 296 296 295 295 294 293 292 292 292 292 292 292 292 293 293 294 294 293 292 292 293 293 294 294 294 295 295 296 295 295 294 294 294 294 294 294 294 294 294
299 299 298 298 298 298 298 298 298 298 298 298 298 298 297 297 297 298 298 298 298 298 298 298 298 298 298 298 298 297 297 297 297 297 297 297 297 297 297 297 296 296 296 296 296 296 296 295 295 295 295 294 294 293 292 292 292 292 292 292 293 293 293 293 293 293 293 292 292 292 292 293 294 294 294 295 295 295 295 295 295 294 294 294 294 294 294
Wind_Speed
3 7 9 11 12 12 11 11 10 10 11 11 9 6 3 2 4 5 6 9 9 7 7 9 9 9 9 10 9 8 8 9 10 11 12 12 12 12 12 12 12 12 11 12 15 17 18 18 19 18 18 21 22 21 19 16 13 9 5 8 14 18 18 19 21 26 30 29 26 24 25 27 28 26 24 21 20 20 20 18 17 18 16 14 15 15 15
5 8 10 12 13 13 14 15 13 11 11 11 10 8 8 8 8 8 10 12 10 7 8 9 9 9 9 8 8 9 10 11 10 11 11 11 11 11 11 11 11 11 11 12 14 16 17 19 19 18 19 21 23 24 23 21 18 11 2 8 14 16 17 20 21 24 26 25 23 22 24 28 28 24 22 21 19 20 20 18 17 18 16 14 16 18 18
5 5 10 13 13 14 14 14 14 12 10 10 10 9 8 8 9 10 11 11 8 6 8 9 8 8 9 9 9 10 10 10 10 10 10 10 9 9 10 10 10 10 11 13 14 15 17 18 19 20 20 21 23 25 26 26 23 16 8 2 11 15 14 16 19 22 23 22 22 22 22 25 26 24 22 22 21 20 19 19 19 19 18 18 19 21 21
3 2 8 12 11 12 12 11 12 12 9 7 8 8 8 6 3 7 8 6 4 5 7 9 9 9 10 10 10 9 8 9 10 10 9 9 9 9 9 10 10 10 11 13 15 16 16 17 19 21 22 23 25 26 26 27 26 21 18 13 8 12 12 14 20 23 22 22 23 23 20 18 20 24 25 25 24 22 21 22 22 21 21 21 22 22 22
3 4 8 9 7 7 6 4 7 9 6 6 7 9 11 10 4 4 4 3 4 5 7 8 8 9 10 9 8 8 7 8 9 9 9 9 9 9 9 9 10 10 11 13 15 17 18 18 18 20 22 25 26 26 26 27 29 27 24 23 18 15 16 17 21 22 21 21 21 21 19 16 19 25 27 26 25 24 24 24 24 24 24 24 23 22 22
4 6 8 7 5 4 1 2 4 6 5 9 10 9 11 11 7 6 6 5 6 6 7 8 8 8 9 8 8 8 7 7 7 8 9 9 9 9 9 9 10 10 11 14 16 18 19 19 19 20 22 23 24 27 28 28 30 31 29 27 25 23 20 18 19 21 20 18 17 19 19 19 23 27 28 28 28 27 27 27 26 27 26 25 24 22 21
4 4 5 4 3 2 2 1 4 5 6 10 12 11 12 11 9 9 9 8 7 7 7 8 8 8 9 9 9 10 9 8 7 8 8 8 9 9 9 9 10 12 13 15 16 18 19 20 22 23 23 23 24 28 30 31 30 31 31 30 29 27 25 22 20 20 19 19 20 22 22 24 26 28 29 30 29 28 28 28 28 27 25 24 23 21 19
3 2 2 3 4 3 3 2 5 5 3 4 6 8 11 11 7 8 8 7 7 7 7 7 7 8 8 9 10 10 9 8 8 8 7 8 8 8 9 10 12 14 16 16 16 18 20 22 25 25 24 23 24 26 29 31 31 31 31 31 31 30 28 25 23 21 21 22 23 24 24 26 28 29 29 29 29 28 29 28 27 26 24 22 22 20 19
3 3 3 4 5 3 2 2 3 3 1 1 2 3 5 8 7 5 7 8 6 6 6 6 7 7 5 6 8 9 10 9 8 9 9 9 9 10 12 13 14 17 19 19 18 19 22 25 26 26 24 23 25 27 28 29 30 32 33 31 30 29 28 26 24 23 23 23 24 24 25 27 29 29 29 28 27 28 30 29 26 25 24 22 21 20 18
3 5 4 4 3 2 2 3 4 1 2 2 0 2 2 4 7 5 5 6 5 5 5 5 7 5 2 6 6 7 9 8 8 10 11 11 12 13 14 15 16 18 21 22 22 22 23 25 26 25 25 25 26 28 27 26 28 31 32 30 29 28 26 24 24 24 24 24 24 25 25 26 28 29 28 26 24 23 26 27 24 22 22 21 20 18 17
3 5 4 3 2 2 1 4 6 3 2 3 1 1 2 3 6 6 4 5 4 3 2 1 3 3 2 3 3 4 7 8 8 8 9 11 13 15 16 16 16 17 20 23 24 24 24 24 24 25 26 27 28 27 26 26 28 29 28 27 26 26 25 24 24 24 24 24 25 26 26 25 26 27 26 25 22 19 20 20 19 18 17 16 16 16 15
3 4 3 3 3 2 2 6 6 4 1 2 1 1 1 3 6 5 4 6 6 4 3 4 4 3 3 4 4 5 7 8 9 9 10 11 14 15 16 16 16 18 21 23 24 24 23 22 22 24 26 28 29 27 25 27 28 28 26 24 24 25 25 25 25 24 24 24 24 24 25 25 25 24 24 23 21 20 18 17 16 14 13 13 15 15 14
5 6 4 2 2 2 4 6 5 3 1 1 2 1 1 2 3 4 7 8 6 6 5 5 5 5 6 7 6 6 7 7 9 10 12 13 15 16 16 17 18 20 21 23 23 22 23 23 23 24 26 28 28 26 26 26 27 25 24 23 24 24 25 26 26 25 25 24 23 23 22 22 22 21 21 20 19 18 17 16 15 15 14 14 15 16 15
3 4 4 3 3 2 6 6 4 3 1 2 2 0 1 1 4 6 8 8 7 7 7 7 6 7 8 9 7 6 6 6 7 9 12 14 15 16 17 18 19 19 20 22 23 23 24 25 24 25 27 28 27 26 26 25 24 24 24 25 25 24 24 25 25 24 24 24 24 23 22 22 23 23 22 20 19 17 16 15 15 16 15 15 17 19 19
2 3 3 3 2 3 8 6 3 4 3 3 2 1 2 5 6 7 7 7 7 8 8 8 8 9 9 8 7 6 6 7 8 10 12 13 14 15 17 17 17 17 18 20 21 21 23 25 26 27 29 28 26 25 25 24 23 24 24 25 26 25 25 24 24 22 21 21 21 22 21 20 22 22 21 20 18 17 16 16 17 17 16 17 19 20 20
1 3 3 3 2 3 7 5 3 4 4 4 3 3 4 5 5 5 6 7 7 8 9 9 8 8 8 7 6 6 7 8 10 11 12 13 14 14 16 16 16 16 17 18 18 20 21 24 26 28 28 28 27 27 25 24 24 24 24 24 26 27 26 24 23 22 22 22 22 22 21 19 17 17 16 15 14 13 12 13 13 14 14 16 17 19 21
4 4 4 4 5 4 6 7 7 7 7 6 6 6 6 5 4 5 6 6 7 8 9 8 7 6 7 7 6 6 6 6 8 10 12 13 14 14 15 16 15 16 16 15 16 17 19 21 23 26 27 27 26 26 25 26 27 26 24 24 25 26 26 25 23 22 22 22 23 23 22 20 18 17 15 15 16 15 13 12 10 10 11 12 13 16 19
8 8 7 7 8 8 8 8 8 8 8 6 6 7 7 5 5 5 6 6 6 6 7 7 6 5 6 6 5 5 5 6 8 9 10 12 13 14 14 14 14 14 15 15 15 16 18 19 19 21 24 25 24 23 23 26 27 26 25 25 24 24 24 24 25 24 22 20 20 20 19 18 18 17 16 17 19 20 19 18 18 18 18 18 17 18 19
5 6 7 9 9 9 9 9 9 10 9 7 6 7 6 6 7 7 7 7 7 6 6 6 6 5 5 5 5 4 4 5 6 8 9 10 11 12 12 11 12 13 14 14 15 17 19 19 18 17 18 19 21 21 21 22 24 25 25 24 23 23 21 20 21 24 23 21 19 19 19 18 18 17 16 16 18 19 19 19 19 20 22 23 23 21 20
5 7 9 10 10 10 9 8 8 9 9 8 7 7 7 8 9 9 9 8 7 6 5 5 5 5 4 4 4 4 4 5 6 7 8 9 9 10 10 9 9 10 11 12 13 15 17 18 19 19 17 15 16 18 19 18 19 21 23 22 21 22 22 19 16 17 20 22 21 21 22 23 22 22 20 18 18 19 18 17 16 16 17 20 20 19 17
8 9 10 10 10 9 9 8 8 8 8 8 8 8 9 9 9 10 11 12 10 9 8 8 7 7 7 7 7 5 5 6 7 6 6 7 8 9 9 8 9 9 9 9 10 11 13 15 17 19 19 16 15 15 16 16 15 16 18 18 17 19 20 20 16 12 13 17 20 21 22 24 24 24 22 20 20 20 18 17 14 12 12 14 15 12 11
6 6 7 7 7 7 6 8 9 9 8 8 8 8 8 9 9 9 9 10 12 13 12 12 10 7 6 8 10 8 7 8 8 6 5 4 4 6 7 8 9 10 9 9 9 9 8 9 12 16 17 17 16 15 14 14 14 14 13 13 14 15 15 16 15 12 9 9 12 16 19 21 22 22 22 21 21 22 21 19 17 14 13 14 13 10 10
7 8 8 6 6 7 7 9 10 9 8 8 8 9 9 9 10 10 8 8 8 9 11 13 11 8 6 8 10 9 7 7 8 9 7 2 1 1 3 5 8 10 10 10 11 11 9 8 8 10 11 12 13 13 13 12 12 12 10 9 10 12 12 11 11 12 11 7 6 10 15 19 20 20 21 20 20 21 20 19 19 18 16 15 14 13 12
10 11 9 7 7 8 9 9 10 9 9 9 8 8 9 9 11 13 11 9 8 7 7 9 10 9 8 8 8 8 8 8 9 11 10 7 3 1 1 0 2 5 6 7 8 9 10 10 10 9 9 10 10 11 11 10 10 11 11 10 9 10 14 13 10 10 14 13 8 7 10 14 17 18 19 19 19 19 19 19 20 19 18 18 16 15 15
10 9 8 8 9 9 8 9 9 10 13 12 9 9 11 12 13 15 13 11 12 11 8 8 9 8 8 7 7 7 8 8 7 9 10 10 9 7 5 4 2 1 1 2 4 6 7 8 9 9 9 10 11 11 10 9 10 10 11 12 13 14 17 18 14 12 15 16 14 9 7 8 10 11 14 15 17 18 18 19 21 21 21 21 20 19 18
10 9 9 9 9 8 8 8 7 9 13 14 11 11 15 16 15 15 15 15 15 14 13 11 11 9 8 7 6 6 7 8 8 6 5 7 9 10 10 9 8 6 4 1 1 3 4 4 5 6 6 8 10 10 9 10 12 9 8 12 15 16 16 17 16 15 14 14 13 13 11 7 5 6 7 11 15 19 19 19 20 21 22 22 22 22 21
9 8 8 9 9 7 7 7 7 9 14 17 13 12 15 17 15 14 14 16 16 16 14 13 13 12 10 8 7 7 7 8 8 6 5 6 7 7 7 7 8 11 10 8 8 9 9 7 5 5 5 7 9 8 7 10 12 9 8 10 12 12 11 11 11 11 13 13 10 9 11 12 9 4 3 8 13 16 18 19 20 19 20 20 20 21 21
7 7 7 7 7 7 8 11 13 14 16 17 16 14 15 16 14 10 9 11 11 11 11 10 11 12 12 11 9 8 7 4 4 6 7 7 6 5 5 5 6 8 8 10 12 12 10 10 9 6 6 6 7 7 7 7 10 11 7 6 7 9 9 7 5 5 8 10 8 8 11 12 12 11 7 9 11 12 14 18 19 18 17 17 17 18 19
7 8 8 7 8 10 10 11 13 13 13 15 16 15 13 11 9 6 6 8 10 8 6 5 6 8 11 11 9 9 7 5 8 9 9 8 7 6 6 5 5 5 6 7 9 9 8 10 10 8 7 5 5 7 7 6 8 13 9 3 5 10 10 6 3 4 6 6 6 10 12 10 10 12 12 11 10 10 14 17 17 16 15 14 13 13 13
7 8 8 7 8 9 8 7 8 8 10 12 12 11 10 8 6 5 6 8 7 6 6 8 13 17 17 14 12 13 12 12 13 13 11 10 9 7 6 4 4 6 6 6 7 7 7 8 8 8 7 4 1 3 6 5 6 11 9 3 4 10 10 6 4 5 7 6 8 11 11 8 10 13 13 12 13 14 16 17 16 16 15 13 13 12 12
7 7 7 6 6 7 6 6 6 6 8 9 8 7 7 7 5 5 5 6 6 6 5 9 15 19 19 16 14 13 12 12 12 12 11 9 8 8 8 7 5 6 6 6 8 8 9 9 8 8 10 8 2 1 2 4 4 7 8 6 5 6 7 5 3 3 5 7 9 11 10 9 10 13 13 12 15 20 22 19 16 15 13 13 14 14 14
8 7 7 6 5 6 6 5 6 6 6 7 7 5 5 7 7 5 5 8 8 4 5 10 17 18 16 14 13 12 11 10 9 9 9 8 7 8 9 8 6 5 5 6 7 8 9 9 9 9 10 9 4 2 1 2 4 4 6 8 6 3 4 4 3 2 3 5 7 7 9 10 10 12 14 12 11 17 20 19 17 15 14 14 15 14 13
8 6 6 6 6 6 5 5 7 8 6 7 7 5 3 6 10 9 9 11 11 8 8 13 17 17 14 13 13 11 9 6 4 4 3 4 5 6 7 7 6 7 8 8 8 8 8 7 7 8 8 7 5 2 1 2 4 4 5 7 6 2 0 2 3 3 2 2 3 5 7 8 7 9 13 12 9 12 16 16 16 16 15 14 12 11 10
8 7 5 6 6 7 6 6 6 6 6 8 10 9 5 4 8 11 11 10 8 9 12 16 16 14 12 12 11 9 8 5 3 2 0 2 4 5 6 6 6 9 10 10 9 10 10 8 6 5 5 4 5 6 5 4 5 5 4 5 6 5 4 3 2 2 2 2 3 6 8 7 5 5 9 10 8 10 13 13 12 13 12 10 10 9 8
12 11 11 12 11 10 10 9 7 7 7 6 7 9 7 7 10 11 7 5 7 12 15 17 14 11 11 11 9 7 6 4 3 1 2 3 4 5 6 7 7 8 10 10 9 10 9 6 4 3 3 4 6 8 8 6 5 6 5 4 5 6 7 7 6 3 5 8 9 8 6 6 6 4 3 5 5 6 10 12 12 11 9 7 7 9 10
12 11 12 11 10 11 13 12 12 12 11 8 7 9 10 10 11 9 6 7 13 16 15 14 12 11 10 9 8 7 6 4 2 2 3 4 5 6 6 6 6 8 11 11 8 8 8 5 2 3 5 5 6 8 9 6 4 5 5 6 6 6 8 11 7 4 11 12 10 8 6 5 4 4 3 3 3 4 7 8 8 6 5 4 5 7 10
12 14 14 11 11 13 14 13 14 15 14 11 10 10 9 8 8 8 9 11 14 14 12 11 11 11 10 9 8 8 7 6 5 5 6 6 6 7 8 7 5 6 10 10 6 6 7 6 5 7 9 7 5 7 7 5 4 4 5 6 8 7 8 11 6 7 14 10 6 6 5 4 4 4 2 2 2 4 6 6 4 3 3 3 3 4 8
15 18 14 10 11 14 13 11 12 13 12 11 10 8 8 8 7 6 8 10 11 11 12 12 12 12 12 10 10 10 10 9 8 7 7 7 7 8 10 10 9 8 8 7 5 5 6 6 7 9 10 7 6 7 6 5 4 4 4 5 7 7 8 11 8 5 13 9 6 7 7 6 6 3 2 2 2 5 6 7 6 4 3 4 4 4 7
13 14 11 9 11 12 10 10 11 9 7 9 11 9 7 7 5 5 6 7 7 8 9 9 9 12 14 13 13 13 13 12 11 10 9 8 8 9 11 13 13 11 9 6 5 5 6 6 7 8 8 6 7 8 6 5 5 5 5 6 7 8 9 12 10 3 12 12 9 9 8 7 6 4 1 2 4 7 6 6 5 6 7 7 6 6 8
10 9 8 9 9 6 6 10 13 10 10 13 14 10 7 5 3 3 4 5 5 4 2 2 4 7 10 11 11 11 11 11 12 12 11 9 9 10 11 13 11 6 4 7 7 5 6 5 4 5 4 4 7 8 4 3 5 5 5 6 7 8 9 12 12 4 10 15 13 10 9 8 7 7 6 4 4 6 7 6 7 10 10 9 8 6 8
11 8 7 9 8 5 7 11 12 11 12 12 11 9 6 5 5 3 4 5 6 4 2 2 2 3 3 3 3 4 6 7 8 10 11 12 12 11 11 11 7 1 4 6 7 4 6 4 1 3 4 4 6 7 4 1 3 4 5 6 7 8 9 11 12 9 5 13 15 12 9 9 9 10 9 7 6 7 6 5 6 8 9 8 8 9 9
13 9 8 10 9 7 7 7 7 8 10 10 10 10 8 4 5 5 3 2 3 5 4 3 3 3 1 3 4 5 5 7 5 5 8 10 10 8 4 5 2 3 4 4 2 3 6 3 2 3 4 7 9 9 5 1 2 3 5 7 7 7 8 11 12 13 10 8 15 15 12 10 11 12 13 11 10 10 10 8 7 8 7 6 6 9 11
11 7 6 8 10 9 7 6 4 4 7 12 13 12 8 5 3 1 2 3 2 2 2 1 3 4 4 4 5 5 4 5 4 1 3 2 3 2 1 1 4 6 4 3 2 3 5 2 3 3 3 7 11 11 7 2 3 4 5 6 6 6 8 11 11 10 13 9 9 16 18 15 11 12 14 15 13 13 14 12 10 9 8 5 4 3 5
7 4 5 9 11 8 5 5 6 7 8 11 13 11 7 7 6 4 1 2 2 1 0 1 3 4 2 2 4 5 5 3 2 3 2 2 2 1 2 1 4 7 4 3 2 2 2 2 3 3 5 7 10 11 8 3 2 4 5 5 6 8 10 11 9 6 11 13 6 6 15 17 15 14 15 16 15 14 15 14 13 12 10 8 7 6 2
5 6 10 11 9 7 6 8 10 10 8 6 5 3 4 8 8 5 2 1 2 2 2 1 4 5 4 3 4 4 2 1 3 2 1 1 2 3 2 0 3 6 4 1 2 3 2 1 0 3 6 8 9 10 7 4 2 4 5 5 6 8 9 7 6 6 7 12 12 7 3 8 13 16 18 17 15 14 14 14 14 14 13 11 9 10 8
6 8 9 7 5 5 7 7 6 4 4 3 2 3 6 7 7 6 5 2 3 4 2 1 3 4 3 3 4 3 1 4 3 1 0 1 2 3 2 0 2 3 0 3 3 3 3 3 3 5 7 8 9 8 6 3 1 4 6 6 7 10 11 7 6 8 9 10 11 11 10 7 3 9 15 17 15 15 16 15 13 14 15 14 12 11 11
7 7 7 7 7 7 6 4 3 3 3 2 2 3 7 9 7 5 4 2 3 4 3 2 3 4 4 4 4 2 3 6 3 1 2 2 0 1 1 2 3 4 3 4 4 4 5 7 6 6 7 8 8 8 6 3 2 4 6 7 8 10 10 8 6 7 10 12 13 11 9 8 7 2 6 10 10 10 14 16 14 12 14 16 14 12 11
9 8 8 9 10 7 4 5 5 4 5 6 4 5 10 11 8 6 3 0 2 3 3 3 3 3 2 3 4 2 2 3 1 1 3 3 1 1 1 2 3 3 3 4 5 6 7 7 6 5 6 7 7 8 7 4 4 6 7 8 9 10 8 6 6 7 9 12 13 12 9 7 6 6 2 2 4 4 8 13 12 8 8 12 14 14 14
7 7 7 7 6 5 6 6 2 3 3 3 6 9 9 8 8 6 2 0 0 2 3 3 2 1 1 2 3 3 2 3 4 3 3 2 0 1 1 1 1 1 2 4 6 7 7 7 7 7 8 8 7 8 8 6 5 7 8 10 11 12 12 10 7 6 7 9 10 11 11 9 6 5 4 2 1 1 4 8 8 7 5 6 8 11 15
6 5 5 5 5 5 4 4 7 8 5 4 6 7 5 4 6 6 5 4 4 3 3 4 5 6 6 6 5 5 4 4 4 4 3 3 4 3 1 1 1 1 4 6 7 8 8 8 8 9 8 8 7 7 7 6 5 6 7 9 10 12 14 14 9 5 6 8 8 9 11 11 10 9 6 4 5 6 6 6 6 7 8 7 6 6 11
8 8 8 6 4 4 5 8 8 4 2 5 10 10 8 7 8 7 6 6 6 7 7 7 8 9 9 9 8 8 7 6 6 6 5 5 6 6 5 4 4 4 5 7 7 7 7 8 9 9 8 8 7 7 6 6 6 6 7 8 8 9 10 11 10 7 6 7 8 9 10 12 12 12 11 8 8 8 8 8 7 7 8 9 8 7 8
4 6 8 7 6 5 8 10 7 4 5 10 13 10 7 7 7 7 8 8 9 10 11 9 8 7 6 4 4 6 8 8 8 7 6 6 6 6 6 6 7 7 7 8 9 8 7 7 8 9 9 9 8 7 6 7 8 7 6 7 7 6 6 6 7 7 7 6 7 9 10 11 11 11 11 10 10 10 9 9 10 10 10 10 10 10 10
Wind_Direction
66 86 77 67 75 70 53 45 31 24 34 48 64 68 26 55 112 138 145 121 109 101 78 63 56 58 60 57 49 40 40 40 35 37 40 38 34 29 26 23 23 23 20 14 11 10 9 7 6 7 5 7 9 9 6 359 347 327 276 209 207 209 195 187 187 180 176 172 170 179 179 163 160 163 162 160 159 160 161 154 148 147 145 147 151 150 146
72 72 81 77 76 72 53 39 29 28 34 43 54 49 33 47 75 99 106 93 81 81 78 64 56 57 58 57 52 45 42 41 40 41 41 39 34 27 22 20 21 21 18 13 10 12 14 9 6 6 5 5 7 9 10 8 5 4 324 197 197 197 191 189 183 170 166 164 164 176 173 157 154 159 160 159 154 151 155 152 148 150 150 145 141 138 136
82 71 87 84 79 78 66 42 26 24 26 33 39 35 27 45 74 91 96 92 81 74 74 67 57 53 54 51 47 47 45 42 43 44 44 41 35 26 23 20 20 20 17 10 6 11 17 16 13 11 8 10 12 13 14 13 15 25 35 128 182 182 183 184 171 158 157 158 158 165 162 152 153 157 159 160 154 149 152 151 150 152 147 137 133 133 132
109 139 113 102 89 79 65 39 18 16 24 42 43 36 22 14 77 111 99 91 93 93 84 71 57 54 56 49 43 45 46 43 44 44 44 44 37 28 24 20 18 19 17 13 9 7 9 15 19 18 17 19 19 17 17 19 23 35 45 54 115 150 138 142 157 161 158 151 149 151 155 157 155 152 152 153 149 144 143 143 142 141 137 131 130 130 128
115 169 138 116 98 77 52 16 356 360 24 68 58 40 28 17 30 101 87 71 82 88 89 80 66 61 58 52 45 42 43 45 46 45 43 42 38 32 27 22 21 20 18 18 16 11 10 14 19 22 24 26 25 23 23 27 31 36 44 50 66 87 94 116 147 162 159 150 145 143 147 152 147 143 142 140 139 138 137 137 136 131 128 127 125 125 125
135 164 139 110 83 71 33 295 327 348 38 78 70 46 31 30 54 83 80 77 73 72 85 89 81 71 64 58 52 44 42 44 44 44 43 38 36 32 28 24 18 14 18 26 27 23 22 23 24 27 29 29 30 31 32 35 36 37 42 45 53 66 75 91 124 146 151 145 137 136 140 140 134 132 131 129 131 134 133 132 130 126 124 123 121 120 121
143 148 116 91 73 107 178 266 358 12 65 88 83 64 39 35 65 87 83 82 84 85 94 99 95 88 77 67 59 49 45 44 44 46 41 34 32 28 25 26 19 14 19 27 31 30 29 31 33 35 34 31 33 36 37 38 37 38 42 41 44 57 64 67 88 117 131 130 129 134 138 135 126 121 121 123 126 129 128 126 124 122 121 120 118 117 116
123 110 54 94 115 129 145 65 22 18 36 69 74 63 38 23 42 86 93 98 106 108 112 117 120 116 99 75 59 48 44 43 43 46 42 35 31 24 24 28 24 24 26 27 34 38 37 38 40 39 38 36 38 39 39 40 40 39 42 41 40 49 56 57 67 89 107 118 125 128 128 125 119 115 116 118 121 124 124 122 119 119 117 116 115 115 114
104 93 67 109 129 113 71 20 7 24 23 336 14 75 52 15 12 62 103 115 122 130 140 150 156 148 113 71 53 41 40 42 43 48 49 45 38 32 34 37 35 38 40 38 39 43 43 43 43 41 42 43 43 42 39 40 42 42 41 39 39 45 52 55 63 75 89 101 111 115 115 113 113 113 113 112 113 116 117 115 114 114 112 111 111 113 114
110 109 104 123 150 131 70 346 326 344 171 209 293 88 83 16 359 16 90 112 121 139 157 177 187 184 64 46 48 40 39 42 44 49 50 48 46 42 41 44 44 45 48 47 45 45 45 44 43 43 45 47 47 45 41 39 42 44 42 38 38 42 48 54 63 73 80 85 92 99 99 100 106 112 113 112 112 111 109 108 108 109 110 110 107 107 108
110 119 121 113 128 132 66 335 320 313 178 165 126 70 69 15 347 354 58 85 78 84 90 119 181 175 98 65 69 56 52 47 44 51 49 44 47 49 47 49 50 50 53 53 50 48 45 43 43 45 47 49 50 46 42 41 43 43 41 39 41 44 47 53 61 72 81 85 86 89 91 92 99 107 110 113 117 118 114 113 112 112 113 112 105 100 101
85 99 99 81 93 102 358 324 317 327 31 90 90 95 71 359 332 344 60 70 53 45 47 45 55 84 109 115 96 72 69 60 49 51 51 46 49 52 50 50 53 56 57 55 51 48 46 45 47 48 49 50 50 47 43 43 43 40 39 42 46 49 52 56 59 65 77 85 86 86 89 90 94 101 107 112 115 117 118 121 123 120 120 120 110 99 95
80 94 98 89 105 81 337 319 319 340 3 97 103 135 199 324 339 39 72 70 56 48 55 69 70 68 83 98 91 75 72 67 55 52 54 56 56 56 53 53 55 56 56 56 54 52 51 52 53 53 53 52 49 46 44 42 39 38 42 47 52 54 54 57 59 61 67 75 79 80 83 88 92 95 100 104 107 110 113 118 119 114 112 113 108 97 90
70 95 102 103 116 31 334 321 328 358 25 142 109 9 274 50 69 78 79 80 81 75 72 78 85 83 81 83 82 75 69 66 59 52 53 58 57 54 54 54 55 55 55 56 56 55 55 57 56 57 58 55 50 46 45 43 42 44 49 53 56 57 57 56 59 62 64 67 72 74 77 83 87 89 91 94 96 99 104 110 112 112 112 111 106 99 91
62 82 77 90 113 357 341 333 346 16 44 119 111 31 68 80 82 85 85 89 95 96 92 87 87 91 89 82 78 74 65 59 55 49 50 55 56 54 52 50 51 55 57 57 57 56 57 58 57 57 58 56 51 46 42 42 47 51 53 54 56 57 57 54 54 58 63 66 68 70 71 76 81 84 86 90 93 99 105 108 110 115 120 117 111 105 98
46 81 69 78 97 22 9 28 69 55 57 79 75 67 74 72 77 86 89 93 98 101 103 101 96 96 95 91 87 79 69 61 56 50 48 51 53 54 53 51 51 55 58 59 59 59 58 59 58 57 57 56 52 46 40 39 45 48 50 53 55 54 53 52 53 58 64 66 67 69 72 77 82 82 82 86 92 98 105 110 115 122 124 121 117 113 108
66 86 93 92 91 68 50 64 80 77 70 66 66 77 78 69 74 88 93 98 101 104 108 108 106 105 105 106 104 97 93 89 79 69 60 56 55 55 55 54 52 53 56 57 57 57 57 57 58 57 55 54 51 46 42 40 41 43 45 48 51 52 51 50 51 56 62 65 66 67 70 76 79 79 79 83 85 87 90 96 106 115 117 123 132 129 119
93 86 93 94 88 80 74 75 81 80 76 70 72 78 77 69 69 77 88 97 100 105 111 109 107 112 117 114 110 106 105 103 96 88 77 69 66 64 62 60 54 51 51 47 43 45 47 49 56 59 56 54 50 46 44 42 39 38 40 43 45 49 52 51 48 49 54 58 60 61 62 64 66 67 71 77 80 82 85 87 90 91 88 92 107 119 118
116 89 94 98 93 90 87 82 82 82 80 78 77 80 84 86 86 86 90 97 99 100 104 109 113 117 117 112 107 102 95 89 83 76 70 67 68 70 70 68 61 56 54 49 44 44 44 44 49 53 55 57 55 49 46 44 41 37 37 37 38 42 48 52 50 50 54 57 59 61 62 63 65 65 66 71 74 74 75 77 83 86 84 83 91 102 107
93 96 106 104 96 96 95 89 87 88 87 87 86 88 92 89 86 84 83 87 94 95 90 91 95 92 88 95 104 103 96 91 80 70 66 61 62 69 74 69 64 62 58 55 54 55 55 53 50 47 47 52 56 53 50 48 47 44 40 38 37 37 40 47 53 57 61 64 67 70 69 69 69 67 64 66 69 68 64 64 70 79 82 82 86 95 99
98 106 117 113 102 96 94 97 102 101 100 103 101 98 98 93 86 79 73 71 72 75 78 81 80 74 63 61 67 68 69 71 68 67 73 67 61 67 68 61 61 64 59 55 55 56 60 63 58 52 48 48 52 55 53 49 51 54 52 49 46 40 38 42 50 60 66 70 73 75 76 76 76 74 73 73 73 72 69 65 66 72 78 76 76 82 89
113 124 130 124 114 108 111 119 120 119 122 124 119 114 110 102 98 95 86 79 76 76 79 81 79 79 73 67 69 68 61 57 52 47 56 73 73 68 66 64 63 60 56 54 50 45 49 59 62 61 57 53 52 53 50 49 54 60 62 60 55 47 42 42 46 48 56 74 81 81 84 88 88 86 86 84 83 82 80 77 76 76 76 71 67 69 80
112 120 121 117 111 113 124 131 131 134 138 132 124 123 122 118 117 116 110 100 91 84 87 93 96 103 106 95 90 88 78 68 56 44 41 59 124 66 63 72 67 58 55 55 51 47 45 43 53 66 62 52 53 53 47 46 53 57 64 72 64 50 45 46 45 38 36 52 95 100 95 96 99 100 98 94 91 89 87 85 83 80 80 78 72 70 75
106 107 107 108 111 118 127 130 129 132 132 124 119 119 117 117 121 121 119 122 123 115 111 116 120 124 123 115 109 104 95 79 59 47 45 50 56 342 289 316 83 72 66 61 57 57 55 47 46 49 40 36 51 59 48 41 43 46 56 70 68 48 41 42 44 37 34 41 67 111 117 108 103 103 105 104 100 94 90 89 87 84 83 83 79 75 74
103 105 107 107 107 110 114 114 115 117 118 117 114 115 116 118 121 123 126 129 128 131 141 147 142 136 130 125 118 112 107 94 71 52 45 45 51 48 23 5 16 91 99 86 78 72 67 62 56 47 34 37 51 55 46 36 29 32 51 62 56 46 43 43 44 40 34 36 42 56 97 123 120 113 112 114 113 108 99 93 91 89 86 83 81 78 76
106 114 117 113 111 109 107 105 103 107 113 115 117 125 133 137 138 137 139 139 141 148 157 161 161 158 147 137 133 131 131 125 111 83 50 49 59 52 30 17 16 11 350 298 81 38 19 33 60 62 49 45 51 52 40 25 18 27 67 66 49 43 45 44 41 37 29 24 25 33 48 73 115 140 138 134 129 122 114 107 102 97 93 89 85 81 79
120 126 124 117 112 110 113 122 127 123 119 120 125 133 136 136 137 139 140 144 155 167 172 172 174 172 161 149 141 142 147 141 127 110 90 86 84 62 38 25 19 17 17 19 20 17 12 15 44 75 63 46 49 47 30 19 22 41 85 81 56 47 44 35 33 35 26 16 14 23 32 39 41 41 131 153 147 136 124 117 113 108 102 98 93 88 84
109 109 106 107 114 118 125 133 135 132 129 131 135 137 133 130 132 133 129 139 162 181 183 176 175 174 172 165 148 144 159 164 125 109 99 92 90 70 51 47 26 12 16 18 15 17 22 21 27 48 50 37 37 32 23 22 22 23 44 82 69 50 37 26 40 51 20 9 17 24 22 28 30 30 59 119 140 147 138 123 115 113 109 104 99 95 89
87 93 92 100 118 120 119 124 127 130 135 140 142 143 141 138 140 142 146 164 179 184 171 135 105 120 152 160 138 117 112 82 79 92 86 74 77 72 55 55 43 23 26 25 16 16 21 15 13 22 29 30 33 25 21 27 19 12 16 76 70 37 23 17 53 56 21 12 31 30 24 32 44 46 63 93 109 135 150 139 118 105 101 99 100 99 89
88 94 96 107 118 113 109 116 121 126 138 144 147 151 152 148 143 147 163 174 169 149 130 106 85 88 105 114 99 88 82 72 75 85 78 64 64 58 41 39 40 29 27 20 5 358 356 355 354 354 352 351 42 36 14 8 14 16 16 29 44 33 26 23 53 55 36 30 31 25 25 44 57 53 62 77 81 97 126 134 117 100 96 96 95 89 84
96 102 110 121 126 120 123 131 124 117 126 130 128 132 133 122 113 125 136 129 106 81 81 99 100 98 101 101 94 90 87 79 78 80 70 57 53 44 32 30 29 18 4 348 339 336 333 333 334 338 343 339 304 179 18 353 357 18 16 356 356 34 46 49 63 47 27 31 37 36 42 57 54 46 52 67 83 97 111 118 108 99 100 99 88 82 91
117 122 127 131 128 124 133 137 121 109 106 103 96 94 109 121 129 133 122 119 120 100 64 90 107 111 109 104 101 99 94 86 80 73 63 53 46 34 26 28 29 13 350 338 333 330 329 330 330 334 345 348 327 226 195 345 342 7 12 350 339 21 69 67 67 63 41 44 51 56 63 65 55 45 45 55 85 107 113 113 107 100 100 97 87 82 93
143 151 159 161 158 149 142 126 113 109 109 113 114 106 103 130 140 139 128 128 136 136 114 111 117 118 113 109 110 108 102 93 84 72 55 39 27 14 10 15 9 347 337 331 321 313 309 312 322 327 335 348 352 325 267 307 316 331 1 353 337 323 91 69 76 100 98 54 63 85 88 80 68 54 48 49 77 107 111 110 106 97 90 89 88 88 95
143 152 143 124 120 126 127 122 121 125 127 134 143 151 159 142 132 130 127 128 134 139 135 130 127 123 117 116 116 110 102 99 104 128 245 339 356 352 350 354 348 340 339 336 327 320 309 292 290 310 318 327 341 339 332 320 297 285 307 346 337 314 299 297 276 230 233 206 130 118 115 118 120 86 59 53 72 101 107 107 104 96 90 92 99 106 112
104 109 103 97 98 108 115 114 117 124 124 125 139 144 135 109 103 104 100 99 119 135 140 135 129 125 125 127 128 127 124 123 125 160 272 315 332 331 331 338 341 340 339 335 332 339 336 309 275 284 301 297 308 316 320 320 297 273 271 300 317 317 316 310 296 249 190 173 161 148 137 139 149 142 90 63 66 95 111 111 108 110 114 116 120 127 133
103 99 96 100 105 112 116 113 107 108 109 108 109 111 110 111 115 115 109 116 127 135 137 135 134 140 145 145 149 155 162 173 199 246 277 297 310 313 317 327 331 327 327 329 341 8 17 10 351 340 334 322 308 306 305 302 289 267 257 269 281 291 311 319 313 166 151 149 146 142 135 138 167 197 182 131 94 108 123 115 98 97 115 127 133 141 144
119 104 97 96 95 96 103 110 112 111 110 108 101 94 93 106 124 126 123 128 135 141 146 149 155 163 166 170 179 186 191 200 217 242 264 277 291 300 301 300 302 305 310 317 336 11 12 358 345 342 341 339 328 316 311 306 299 278 254 261 270 269 293 319 327 151 151 144 130 128 127 134 165 180 161 117 117 126 129 127 111 95 121 154 176 164 156
102 101 105 111 109 106 105 106 109 112 115 117 115 106 94 94 100 108 121 136 151 161 168 177 186 185 179 180 193 204 210 217 225 237 252 264 275 285 289 286 280 278 288 303 319 331 333 332 338 343 343 340 328 313 299 285 291 286 257 264 274 263 279 313 325 160 158 155 143 139 136 142 158 157 39 22 168 155 134 127 127 130 160 203 214 192 168
90 100 107 108 112 122 133 129 122 120 118 118 123 123 113 107 109 110 116 128 148 165 176 184 188 185 185 193 206 217 225 231 234 237 244 252 262 275 286 292 293 289 282 281 291 308 320 334 351 357 357 358 352 335 302 263 262 263 248 255 267 259 272 306 316 206 167 162 154 149 148 154 167 169 121 111 166 170 159 150 159 185 209 222 223 200 175
109 117 121 114 110 116 122 118 117 111 96 95 97 92 75 65 78 113 124 120 117 129 159 159 152 170 189 202 214 229 241 244 240 237 238 241 246 259 279 296 308 310 263 237 249 288 322 337 4 22 10 353 357 359 346 259 249 251 240 243 255 257 271 301 313 273 181 172 166 159 159 165 174 178 173 162 165 177 184 190 198 206 219 235 238 207 169
127 127 123 120 118 100 89 99 109 109 103 99 99 98 86 48 32 61 127 141 138 147 190 209 180 176 193 217 257 287 294 281 251 229 225 232 237 246 271 293 308 41 150 197 225 279 320 319 32 71 41 0 357 4 5 252 236 246 238 237 250 261 266 278 296 300 232 186 178 172 170 175 180 184 186 183 181 186 191 193 198 210 231 246 228 191 172
129 137 138 138 138 121 98 102 116 125 130 132 128 122 120 89 40 36 43 83 144 171 190 206 213 219 278 317 301 286 298 310 292 228 212 224 228 229 268 304 276 161 145 162 188 334 340 321 180 110 49 27 19 13 359 275 240 265 263 255 259 273 269 260 276 304 305 234 199 192 189 186 182 182 184 184 186 194 199 196 199 216 239 250 218 193 193
123 145 161 148 137 127 120 129 138 137 144 146 139 131 124 114 101 73 354 359 3 203 199 223 249 245 254 291 295 283 294 323 341 102 141 162 193 204 306 322 189 182 166 134 107 15 5 44 149 131 48 25 18 11 0 305 258 279 287 274 260 257 251 245 256 301 327 311 224 200 197 195 188 184 187 188 192 200 203 202 205 217 227 237 249 230 192
115 106 87 101 112 116 119 117 93 73 90 120 131 136 146 151 154 170 227 337 336 307 266 357 320 304 291 300 315 311 306 317 50 87 66 26 14 319 321 298 198 197 185 126 84 20 14 113 133 85 35 18 8 4 1 346 282 284 295 289 269 259 255 247 245 294 346 353 344 214 206 206 205 201 197 195 197 204 207 203 199 197 196 208 243 269 242
145 98 82 91 107 105 83 79 78 71 74 98 117 139 167 166 161 149 113 35 339 354 44 8 314 316 316 303 307 310 297 135 95 72 18 289 277 291 316 28 175 188 181 105 31 352 323 221 124 21 10 1 356 355 358 4 336 303 299 295 294 301 306 292 264 275 330 354 2 360 285 227 218 214 209 204 201 204 207 202 195 189 185 190 214 241 253
150 110 97 103 120 110 94 92 92 84 81 86 65 63 92 112 119 111 100 73 331 335 2 309 294 310 321 315 316 323 131 134 114 53 52 179 252 279 288 156 151 163 112 353 341 321 297 288 306 335 340 339 342 345 347 354 334 309 309 307 310 321 331 325 280 268 294 323 340 352 1 359 298 223 212 209 209 211 210 206 198 194 196 197 201 215 232
149 150 156 152 133 111 102 110 123 121 127 185 223 147 115 107 99 95 97 71 334 327 337 339 334 337 341 333 329 342 128 141 151 179 145 128 82 305 256 230 242 256 292 324 329 322 312 307 307 319 327 329 330 330 329 319 271 281 293 299 302 310 320 322 301 284 288 296 303 316 337 356 1 341 200 196 199 208 212 211 208 204 206 210 210 206 208
163 174 166 143 125 120 155 212 213 194 198 214 199 128 118 117 112 100 90 324 312 340 347 334 308 303 317 334 338 349 90 118 111 150 156 159 199 309 344 325 292 276 286 315 325 321 316 313 313 316 315 313 315 318 317 303 273 271 275 276 279 285 295 309 316 306 292 284 282 284 289 309 341 358 8 171 164 167 190 201 207 208 206 213 216 213 207
129 111 111 121 132 161 205 218 199 77 75 101 97 94 102 121 124 109 78 327 134 49 13 357 343 337 1 8 3 7 38 60 60 74 109 130 317 323 336 354 338 270 285 316 329 329 325 323 322 313 301 292 298 313 317 305 289 288 287 283 279 277 276 280 295 312 309 295 278 264 259 265 286 324 347 353 329 217 187 193 207 221 227 233 236 226 215
145 133 144 168 187 194 183 125 84 67 46 45 76 86 89 98 101 92 71 54 45 23 11 35 56 56 57 65 67 61 55 60 66 71 68 45 35 38 49 85 73 320 307 316 327 332 332 331 328 319 305 288 286 305 317 316 310 309 306 303 299 290 280 274 274 292 313 310 295 271 259 259 265 273 288 319 321 290 254 232 235 246 251 262 274 243 214
181 185 180 181 193 183 141 105 89 83 65 71 79 81 73 61 63 72 82 76 52 33 36 53 60 59 61 64 60 53 51 51 52 55 56 49 45 49 54 55 46 21 350 344 348 349 345 341 335 327 312 289 279 293 312 318 319 320 313 308 314 315 297 278 270 275 293 305 303 289 274 267 266 264 262 269 288 285 265 249 250 253 252 257 263 250 228
157 140 119 91 70 99 124 116 104 97 93 86 81 76 68 59 59 70 87 88 71 53 49 44 31 28 44 58 50 48 53 51 44 44 50 49 44 44 50 53 50 47 44 42 41 40 34 19 359 340 321 298 284 289 306 311 314 325 327 311 306 318 323 302 284 279 283 291 301 301 291 278 272 268 261 259 265 270 264 258 259 256 250 250 252 250 249